DW8689 Weather Reports


Display with metric or nautical units.
time (UTC)temp
F
wind
direction
speed
MPH
gust
MPH
rain 1hr
in
rain 24hr
in
rain mn
in
humidity
%
barometer
mb
20260506083510 45 39 1.0 4.0 0.00 0.01 0.00 72 1010.8
20260506083009 45 39 1.0 4.0 0.00 0.01 0.00 72 1010.9
20260506082509 45 39 1.0 4.0 0.00 0.01 0.00 72 1010.9
20260506082009 45 39 1.0 4.0 0.00 0.01 0.00 72 1010.9
20260506081510 45 38 1.0 4.0 0.00 0.01 0.00 75 1011.0
20260506081010 44 37 1.0 4.0 0.00 0.01 0.00 75 1011.0
20260506080510 44 46 1.0 4.0 0.00 0.01 0.00 76 1011.0
20260506073509 41 28 1.0 3.0 0.00 0.01 0.00 85 1011.1
20260506073009 40 31 1.0 3.0 0.00 0.01 0.00 86 1011.1
20260506072510 40 41 0.0 3.0 0.00 0.01 0.00 87 1011.0
20260506072010 39 54 0.0 2.0 0.00 0.01 0.00 88 1011.0
20260506071510 39 0 0.0 0.0 0.00 0.01 0.00 88 1011.0
20260506062010 34 0 0.0 0.0 0.00 0.01 0.00 88 1010.8
20260506061510 33 0 0.0 0.0 0.00 0.01 0.00 88 1010.8
20260506061010 33 0 0.0 0.0 0.00 0.01 0.00 88 1010.9
20260506060510 33 0 0.0 0.0 0.00 0.01 0.00 88 1010.8
20260506051010 31 0 0.0 0.0 0.00 0.04 0.00 87 1011.0
20260506050509 31 0 0.0 0.0 0.00 0.04 0.00 86 1011.0
20260506044509 32 54 0.0 1.0 0.00 0.05 0.00 86 1011.0
20260506044010 32 53 0.0 2.0 0.00 0.05 0.00 86 1011.0
20260506043009 32 49 0.0 2.0 0.00 0.05 0.00 85 1011.1
20260506042510 32 49 0.0 1.0 0.00 0.05 0.00 85 1011.0
20260506041510 32 50 0.0 1.0 0.00 0.05 0.00 85 1011.2
20260506041009 32 49 0.0 1.0 0.00 0.05 0.00 85 1011.2
20260506040509 32 49 0.0 1.0 0.00 0.05 0.00 85 1011.2
20260506040010 32 50 0.0 1.0 0.00 0.05 0.00 85 1011.3
20260506035509 32 50 0.0 1.0 0.00 0.05 0.00 85 1011.3
20260506035010 32 50 0.0 1.0 0.00 0.05 0.00 84 1011.3
20260506034510 33 50 0.0 1.0 0.00 0.05 0.00 84 1011.3
20260506034010 33 0 0.0 0.0 0.00 0.05 0.00 84 1011.4
20260506033509 33 0 0.0 0.0 0.00 0.05 0.00 83 1011.4
20260506032509 33 50 0.0 1.0 0.00 0.05 0.00 83 1011.4
20260506031510 33 0 0.0 0.0 0.00 0.05 0.00 82 1011.4
20260506031010 33 0 0.0 0.0 0.00 0.05 0.00 82 1011.4
20260506030510 34 0 0.0 0.0 0.00 0.05 0.00 82 1011.5
20260506010009 39 50 0.0 3.0 0.00 0.05 0.00 77 1012.0
20260506005509 39 50 1.0 3.0 0.00 0.05 0.00 77 1012.1
20260506005010 39 48 0.0 1.0 0.00 0.05 0.00 77 1012.1
20260506004509 40 49 0.0 1.0 0.00 0.05 0.00 77 1012.2
20260506004010 40 49 0.0 2.0 0.00 0.05 0.00 77 1012.2
20260506003509 40 48 0.0 2.0 0.00 0.05 0.00 77 1012.1
20260506003010 40 48 1.0 3.0 0.00 0.05 0.00 77 1012.1
20260506002010 40 51 1.0 3.0 0.00 0.05 0.00 77 1012.2
20260506001510 40 56 1.0 4.0 0.00 0.05 0.00 78 1012.2
20260506000509 40 48 0.0 2.0 0.00 0.05 0.00 78 1012.2
20260506000010 40 48 0.0 2.0 0.00 0.05 0.00 79 1012.3
20260505235509 40 48 0.0 2.0 0.00 0.05 0.00 79 1012.2
20260505235009 39 47 0.0 2.0 0.00 0.05 0.00 79 1012.2
20260505234510 39 48 0.0 2.0 0.00 0.05 0.00 80 1012.2
20260505233508 39 0 0.0 0.0 0.00 0.05 0.00 80 1012.3
20260505233009 39 0 0.0 0.0 0.00 0.05 0.00 81 1012.2
20260505232509 39 0 0.0 0.0 0.00 0.05 0.00 81 1012.2
20260505231010 39 48 0.0 2.0 0.00 0.05 0.00 81 1012.2
20260505230013 39 0 0.0 0.0 0.00 0.05 0.00 81 1012.3
20260505225010 39 48 0.0 1.0 0.00 0.05 0.05 81 1012.4
20260505224510 40 48 0.0 2.0 0.00 0.05 0.05 81 1012.4
20260505224010 40 48 0.0 2.0 0.00 0.05 0.05 81 1012.4
20260505223510 40 47 0.0 1.0 0.00 0.05 0.05 81 1012.4
20260505223010 40 48 0.0 2.0 0.00 0.05 0.05 81 1012.3
20260505222509 40 47 0.0 2.0 0.00 0.05 0.05 81 1012.3
20260505222010 41 47 0.0 2.0 0.00 0.05 0.05 81 1012.3
20260505220509 41 46 0.0 3.0 0.00 0.05 0.05 81 1012.3
20260505215509 42 39 0.0 3.0 0.00 0.05 0.05 81 1012.3
20260505215010 42 41 1.0 3.0 0.00 0.05 0.05 81 1012.3
20260505214510 42 42 1.0 2.0 0.00 0.05 0.05 81 1012.3
20260505214010 42 40 0.0 2.0 0.00 0.05 0.05 81 1012.3
20260505212509 42 38 0.0 2.0 0.00 0.05 0.05 80 1012.2
20260505212010 42 38 0.0 2.0 0.00 0.05 0.05 80 1012.2
20260505211509 43 38 0.0 2.0 0.00 0.05 0.05 79 1012.2
20260505211010 43 38 0.0 1.0 0.00 0.05 0.05 79 1012.1
20260505210510 43 38 0.0 1.0 0.00 0.05 0.05 78 1012.1
20260505210009 43 38 0.0 1.0 0.00 0.05 0.05 78 1012.1
20260505205509 44 38 0.0 1.0 0.00 0.05 0.05 78 1012.1
20260505204010 44 31 0.0 1.0 0.00 0.05 0.05 76 1012.1
20260505203509 44 30 0.0 1.0 0.00 0.05 0.05 76 1012.0
20260505203010 45 0 0.0 0.0 0.00 0.05 0.05 75 1012.0
20260505202509 45 0 0.0 0.0 0.00 0.05 0.05 75 1012.1
20260505202010 45 30 0.0 1.0 0.00 0.05 0.05 74 1012.1
20260505201510 45 42 0.0 3.0 0.00 0.05 0.05 74 1012.1
20260505201010 46 47 0.0 3.0 0.00 0.05 0.05 73 1012.1
20260505200509 46 47 1.0 3.0 0.00 0.05 0.05 73 1012.1
20260505200010 46 42 1.0 2.0 0.00 0.05 0.05 73 1012.2
20260505195510 47 38 1.0 3.0 0.00 0.05 0.05 72 1012.2
20260505194010 48 28 1.0 4.0 0.00 0.05 0.05 71 1012.2
20260505193510 48 28 1.0 4.0 0.00 0.05 0.05 71 1012.3
20260505193010 49 35 1.0 4.0 0.00 0.05 0.05 70 1012.3
20260505192509 49 30 0.0 4.0 0.00 0.05 0.05 70 1012.2
20260505191509 49 30 0.0 4.0 0.00 0.05 0.05 69 1012.1
20260505191010 49 30 0.0 4.0 0.00 0.05 0.05 69 1012.1
20260505190510 49 30 0.0 4.0 0.00 0.05 0.05 69 1012.1
20260505190010 49 30 0.0 4.0 0.00 0.05 0.05 69 1012.1
20260505185508 49 30 0.0 4.0 0.00 0.05 0.05 69 1012.1
20260505185010 49 30 0.0 4.0 0.00 0.05 0.05 69 1012.0
20260505184508 49 30 0.0 4.0 0.00 0.05 0.05 69 1012.1
20260505184009 49 30 0.0 4.0 0.00 0.05 0.05 69 1012.1
20260505183009 49 30 0.0 4.0 0.00 0.05 0.05 69 1012.0
20260505182509 49 30 0.0 4.0 0.00 0.05 0.05 69 1012.1
20260505182009 48 30 0.0 4.0 0.00 0.05 0.05 69 1012.1
20260505181509 48 26 1.0 4.0 0.00 0.05 0.05 69 1012.1
20260505181010 49 27 2.0 3.0 0.00 0.05 0.05 68 1012.1
20260505180510 51 27 2.0 3.0 0.00 0.05 0.05 62 1012.0
20260505180010 51 27 2.0 3.0 0.00 0.05 0.05 62 1012.0
20260505175509 51 27 2.0 3.0 0.00 0.05 0.05 62 1012.0
20260505175009 51 27 2.0 3.0 0.00 0.05 0.05 62 1012.0
20260505174509 51 27 2.0 3.0 0.00 0.05 0.05 62 1012.1
20260505174010 51 27 2.0 3.0 0.00 0.05 0.05 62 1012.1
20260505173510 51 27 2.0 3.0 0.00 0.05 0.05 62 1012.1
20260505173010 51 27 2.0 3.0 0.00 0.05 0.05 62 1012.1
20260505172510 51 27 2.0 3.0 0.00 0.05 0.05 62 1012.1
20260505172010 51 27 2.0 3.0 0.00 0.05 0.05 62 1012.1
20260505171509 51 27 2.0 3.0 0.00 0.05 0.05 62 1012.1
20260505171010 52 27 2.0 3.0 0.00 0.05 0.05 62 1012.1
20260505165511 54 27 2.0 3.0 0.00 0.05 0.05 53 1012.1
20260505165009 57 27 2.0 3.0 0.00 0.05 0.05 53 1012.1
20260505164510 57 27 2.0 3.0 0.00 0.05 0.05 53 1012.0
20260505163509 57 27 2.0 3.0 0.00 0.05 0.05 53 1012.0
20260505163010 57 27 2.0 3.0 0.00 0.05 0.05 53 1012.1
20260505162509 57 27 2.0 3.0 0.00 0.05 0.05 53 1012.0
20260505162010 57 27 2.0 3.0 0.00 0.05 0.05 53 1012.0
20260505161510 57 27 2.0 3.0 0.00 0.05 0.05 53 1012.1
20260505161009 57 27 2.0 3.0 0.00 0.05 0.05 53 1012.1
20260505160509 57 27 2.0 3.0 0.00 0.05 0.05 53 1012.1
20260505153009 54 27 2.0 3.0 0.00 0.05 0.05 58 1012.1
20260505152509 54 27 2.0 3.0 0.00 0.05 0.05 58 1012.2
20260505152009 54 27 2.0 3.0 0.00 0.05 0.05 58 1012.2
20260505151510 55 27 2.0 3.0 0.00 0.05 0.05 58 1012.2
20260505150509 56 24 2.0 3.0 0.00 0.05 0.05 58 1012.2
20260505124509 53 37 3.0 7.0 0.00 0.05 0.05 70 1012.3
20260505124009 53 30 3.0 6.0 0.00 0.05 0.05 71 1012.3
20260505123510 53 31 3.0 6.0 0.00 0.05 0.05 71 1012.4
20260505123007 52 38 4.0 7.0 0.00 0.05 0.05 72 1012.4
20260505122509 52 40 4.0 7.0 0.00 0.05 0.05 71 1012.3
20260505122010 52 40 3.0 9.0 0.00 0.05 0.05 72 1012.4
20260505121509 52 31 2.0 9.0 0.00 0.05 0.05 73 1012.5
20260505121010 52 29 2.0 6.0 0.00 0.05 0.05 74 1012.5
20260505120509 51 33 2.0 8.0 0.00 0.05 0.05 74 1012.5
20260505120010 51 32 3.0 8.0 0.00 0.05 0.05 74 1012.5
20260505115010 51 35 3.0 8.0 0.00 0.05 0.05 75 1012.5
20260505114510 51 38 3.0 10.0 0.00 0.05 0.05 76 1012.5
20260505114010 51 39 4.0 10.0 0.00 0.05 0.05 75 1012.5
20260505113509 51 38 4.0 9.0 0.00 0.05 0.05 76 1012.5
20260505113010 51 35 4.0 8.0 0.00 0.05 0.05 77 1012.4
20260505112509 50 37 4.0 10.0 0.00 0.05 0.05 77 1012.5
20260505112009 50 42 3.0 10.0 0.00 0.05 0.05 78 1012.5
20260505111509 50 42 3.0 9.0 0.00 0.05 0.05 79 1012.6
20260505111010 50 40 4.0 9.0 0.00 0.05 0.05 79 1012.6
20260505110510 50 39 3.0 8.0 0.00 0.05 0.05 80 1012.6
20260505101509 48 37 5.0 12.0 0.00 0.05 0.05 85 1012.8
20260505101009 49 43 5.0 10.0 0.00 0.05 0.05 86 1012.8
20260505100509 48 46 5.0 10.0 0.00 0.05 0.05 87 1012.8
20260505100009 48 51 3.0 8.0 0.00 0.05 0.05 88 1012.9
20260505095509 48 51 3.0 8.0 0.01 0.05 0.05 88 1012.8
20260505095008 47 51 3.0 8.0 0.01 0.05 0.05 89 1012.8
20260505094509 47 48 4.0 9.0 0.01 0.05 0.05 89 1012.8
20260505093509 46 42 5.0 12.0 0.01 0.05 0.05 89 1012.8
20260505093010 47 37 5.0 11.0 0.01 0.05 0.05 89 1012.9
20260505092509 47 36 4.0 9.0 0.01 0.05 0.05 90 1012.8
20260505092010 47 41 2.0 5.0 0.01 0.05 0.05 90 1012.7
20260505091510 47 49 3.0 5.0 0.01 0.05 0.05 90 1012.7
20260505091009 47 53 3.0 4.0 0.01 0.05 0.05 90 1012.7
20260505090510 47 30 1.0 3.0 0.01 0.05 0.05 90 1012.7
20260505085509 47 30 1.0 3.0 0.00 0.04 0.04 90 1012.6
20260505085009 48 30 1.0 3.0 0.00 0.04 0.04 90 1012.7
20260505084510 48 30 1.0 3.0 0.00 0.04 0.04 90 1012.6